Precipitable_Water
0.91 0.90 0.87 0.85 0.83 0.80 0.76 0.73 0.73 0.72 0.73 0.73 0.72 0.73 0.74 0.76 0.78 0.78 0.80 0.82 0.81 0.80 0.81 0.83 0.85 0.85 0.88 0.91 0.93 0.96 0.98 1.00 1.03 1.07 1.11 1.15 1.17 1.19 1.19 1.22 1.24 1.23
0.87 0.86 0.84 0.80 0.76 0.74 0.74 0.73 0.72 0.72 0.71 0.71 0.72 0.73 0.75 0.76 0.77 0.77 0.77 0.78 0.78 0.77 0.78 0.78 0.79 0.78 0.79 0.80 0.83 0.86 0.88 0.92 0.93 1.01 0.99 1.00 1.04 1.08 1.11 1.16 1.17 1.20
0.82 0.80 0.76 0.72 0.70 0.70 0.71 0.72 0.71 0.71 0.70 0.70 0.71 0.71 0.72 0.74 0.73 0.74 0.75 0.76 0.75 0.74 0.73 0.73 0.74 0.74 0.74 0.74 0.75 0.77 0.78 0.80 0.81 0.86 0.89 0.92 0.98 0.99 1.03 1.10 1.15 1.18
0.78 0.76 0.74 0.72 0.71 0.69 0.70 0.69 0.69 0.69 0.69 0.67 0.67 0.68 0.69 0.70 0.70 0.69 0.70 0.72 0.73 0.73 0.72 0.72 0.71 0.71 0.71 0.71 0.71 0.71 0.72 0.74 0.76 0.78 0.79 0.84 0.89 0.94 0.97 1.00 1.05 1.12
0.75 0.75 0.74 0.72 0.71 0.70 0.69 0.67 0.66 0.66 0.66 0.66 0.67 0.68 0.67 0.67 0.66 0.66 0.66 0.68 0.70 0.71 0.70 0.69 0.69 0.69 0.69 0.68 0.68 0.66 0.67 0.68 0.71 0.72 0.72 0.74 0.80 0.85 0.91 0.96 0.95 0.96
0.76 0.75 0.73 0.71 0.70 0.68 0.67 0.65 0.65 0.65 0.66 0.65 0.66 0.68 0.67 0.68 0.67 0.66 0.66 0.66 0.67 0.68 0.68 0.68 0.67 0.67 0.67 0.66 0.66 0.65 0.64 0.64 0.66 0.68 0.68 0.68 0.71 0.77 0.81 0.85 0.89 0.90
0.73 0.72 0.71 0.71 0.70 0.69 0.67 0.66 0.66 0.66 0.66 0.67 0.68 0.67 0.68 0.68 0.68 0.67 0.67 0.67 0.67 0.68 0.67 0.66 0.66 0.66 0.66 0.65 0.64 0.64 0.65 0.64 0.64 0.64 0.63 0.64 0.66 0.68 0.75 0.79 0.82 0.86
0.72 0.72 0.71 0.70 0.68 0.68 0.67 0.67 0.66 0.66 0.67 0.67 0.66 0.67 0.68 0.68 0.68 0.68 0.68 0.68 0.67 0.67 0.66 0.66 0.65 0.65 0.65 0.64 0.63 0.62 0.63 0.66 0.65 0.65 0.64 0.64 0.65 0.64 0.67 0.73 0.77 0.79
0.71 0.70 0.70 0.69 0.68 0.68 0.67 0.67 0.67 0.67 0.67 0.65 0.64 0.64 0.66 0.65 0.65 0.65 0.65 0.65 0.65 0.64 0.64 0.63 0.62 0.62 0.62 0.62 0.61 0.60 0.60 0.63 0.65 0.65 0.64 0.63 0.63 0.65 0.67 0.69 0.71 0.74
0.70 0.71 0.70 0.70 0.69 0.69 0.67 0.67 0.67 0.67 0.67 0.66 0.65 0.65 0.63 0.64 0.65 0.64 0.64 0.63 0.62 0.61 0.61 0.60 0.60 0.60 0.60 0.60 0.60 0.59 0.59 0.60 0.62 0.64 0.64 0.65 0.65 0.66 0.67 0.68 0.68 0.69
0.70 0.71 0.70 0.70 0.70 0.70 0.68 0.68 0.66 0.66 0.65 0.64 0.63 0.62 0.62 0.62 0.62 0.63 0.62 0.61 0.59 0.59 0.59 0.59 0.59 0.59 0.58 0.58 0.59 0.60 0.60 0.60 0.60 0.62 0.63 0.65 0.66 0.68 0.69 0.69 0.69 0.69
0.69 0.69 0.69 0.69 0.69 0.67 0.66 0.65 0.64 0.63 0.62 0.62 0.62 0.60 0.60 0.60 0.60 0.60 0.60 0.59 0.59 0.59 0.59 0.59 0.59 0.59 0.58 0.58 0.58 0.59 0.60 0.61 0.62 0.62 0.64 0.65 0.66 0.68 0.69 0.71 0.71 0.72
0.69 0.69 0.68 0.67 0.65 0.64 0.63 0.63 0.62 0.62 0.61 0.60 0.60 0.60 0.59 0.58 0.59 0.59 0.60 0.59 0.59 0.59 0.59 0.59 0.59 0.59 0.58 0.58 0.59 0.59 0.60 0.60 0.61 0.62 0.63 0.65 0.66 0.68 0.70 0.72 0.73 0.74
0.70 0.69 0.68 0.66 0.65 0.64 0.62 0.61 0.61 0.60 0.60 0.60 0.59 0.57 0.57 0.56 0.56 0.57 0.58 0.59 0.58 0.58 0.59 0.59 0.58 0.57 0.57 0.57 0.57 0.58 0.59 0.60 0.61 0.61 0.62 0.64 0.66 0.67 0.69 0.71 0.73 0.74
0.69 0.68 0.66 0.65 0.63 0.62 0.61 0.60 0.59 0.59 0.58 0.57 0.56 0.55 0.55 0.55 0.55 0.54 0.54 0.53 0.54 0.54 0.54 0.54 0.53 0.53 0.53 0.53 0.52 0.54 0.56 0.57 0.59 0.60 0.61 0.62 0.63 0.65 0.67 0.68 0.70 0.72
0.65 0.64 0.62 0.62 0.60 0.59 0.58 0.57 0.57 0.56 0.55 0.53 0.52 0.51 0.51 0.50 0.49 0.49 0.48 0.47 0.46 0.47 0.48 0.48 0.48 0.49 0.50 0.51 0.52 0.52 0.53 0.55 0.57 0.59 0.59 0.59 0.59 0.60 0.63 0.66 0.67 0.69
0.62 0.60 0.59 0.58 0.57 0.56 0.55 0.54 0.53 0.52 0.50 0.48 0.47 0.46 0.45 0.45 0.44 0.43 0.43 0.43 0.43 0.43 0.43 0.44 0.45 0.46 0.47 0.48 0.49 0.50 0.51 0.52 0.53 0.55 0.57 0.57 0.57 0.57 0.58 0.61 0.65 0.67
0.57 0.57 0.56 0.55 0.53 0.51 0.50 0.50 0.48 0.46 0.44 0.43 0.42 0.41 0.41 0.41 0.40 0.40 0.40 0.40 0.40 0.40 0.40 0.40 0.41 0.43 0.43 0.44 0.45 0.47 0.49 0.50 0.51 0.52 0.53 0.54 0.55 0.56 0.57 0.59 0.61 0.64
0.55 0.54 0.53 0.51 0.48 0.46 0.45 0.44 0.42 0.40 0.39 0.38 0.37 0.38 0.38 0.37 0.36 0.36 0.36 0.37 0.37 0.36 0.35 0.37 0.37 0.39 0.38 0.39 0.41 0.43 0.45 0.47 0.48 0.50 0.50 0.51 0.52 0.54 0.55 0.57 0.59 0.61
0.52 0.50 0.47 0.45 0.42 0.41 0.40 0.39 0.37 0.36 0.36 0.36 0.35 0.35 0.34 0.34 0.34 0.33 0.34 0.34 0.34 0.34 0.34 0.34 0.35 0.36 0.36 0.36 0.37 0.39 0.41 0.44 0.46 0.48 0.49 0.49 0.50 0.51 0.53 0.55 0.57 0.59
0.47 0.44 0.41 0.39 0.38 0.37 0.36 0.35 0.34 0.34 0.33 0.33 0.32 0.31 0.30 0.30 0.30 0.30 0.31 0.32 0.32 0.32 0.32 0.32 0.33 0.34 0.34 0.34 0.35 0.36 0.37 0.39 0.42 0.44 0.46 0.48 0.49 0.51 0.52 0.53 0.55 0.57
0.42 0.39 0.37 0.36 0.35 0.34 0.33 0.32 0.32 0.31 0.30 0.30 0.29 0.29 0.30 0.30 0.30 0.30 0.29 0.29 0.30 0.30 0.30 0.29 0.31 0.32 0.32 0.32 0.33 0.33 0.35 0.36 0.38 0.39 0.42 0.44 0.46 0.48 0.50 0.52 0.54 0.56
0.38 0.36 0.35 0.34 0.33 0.31 0.30 0.30 0.29 0.29 0.29 0.30 0.28 0.27 0.27 0.27 0.28 0.28 0.29 0.28 0.28 0.29 0.28 0.28 0.30 0.32 0.32 0.32 0.32 0.32 0.32 0.33 0.34 0.36 0.39 0.41 0.44 0.47 0.49 0.51 0.52 0.54
0.36 0.34 0.33 0.32 0.31 0.29 0.29 0.28 0.29 0.28 0.28 0.29 0.27 0.26 0.26 0.27 0.28 0.28 0.28 0.28 0.28 0.28 0.29 0.28 0.29 0.32 0.32 0.32 0.32 0.33 0.33 0.32 0.33 0.33 0.35 0.38 0.41 0.45 0.48 0.50 0.52 0.55
0.34 0.33 0.32 0.30 0.29 0.28 0.28 0.27 0.26 0.27 0.28 0.29 0.28 0.28 0.27 0.28 0.28 0.26 0.26 0.27 0.28 0.28 0.29 0.29 0.29 0.31 0.32 0.32 0.32 0.33 0.33 0.33 0.32 0.32 0.32 0.34 0.37 0.40 0.45 0.47 0.49 0.53
0.33 0.31 0.30 0.29 0.28 0.27 0.27 0.26 0.27 0.26 0.26 0.27 0.27 0.27 0.26 0.26 0.26 0.25 0.25 0.26 0.27 0.28 0.28 0.29 0.29 0.30 0.32 0.32 0.32 0.32 0.33 0.33 0.33 0.31 0.30 0.33 0.35 0.38 0.40 0.44 0.47 0.49
Wind_Speed
12 12 12 13 13 14 14 15 15 16 16 17 17 17 18 18 19 19 19 19 19 19 20 20 20 20 20 20 21 21 21 21 21 21 21 21 22 22 23 24 24 24
11 12 12 12 13 14 15 15 16 16 16 17 17 18 18 19 19 19 20 20 20 20 21 21 21 21 21 21 21 21 22 22 22 22 22 22 22 23 23 23 24 24
11 12 12 13 13 14 15 15 16 16 17 17 17 18 18 19 19 20 20 20 21 21 21 22 22 22 22 22 22 22 22 23 23 23 23 23 23 23 24 23 23 23
11 12 12 13 14 14 15 15 16 16 17 17 18 18 19 19 19 20 20 21 21 21 21 22 22 22 23 23 23 23 23 23 23 24 24 24 24 24 24 24 23 23
11 12 12 13 14 14 15 15 16 17 17 17 18 19 19 19 20 20 21 21 22 22 23 23 23 24 24 24 24 24 24 24 24 24 24 24 24 24 24 24 24 24
11 12 12 13 14 15 15 16 16 17 17 18 18 19 19 19 20 20 21 21 22 23 23 24 24 25 25 25 25 25 25 25 26 26 25 25 25 25 25 25 25 24
11 12 13 14 14 15 15 16 16 16 17 18 18 19 19 19 20 20 21 21 22 23 23 24 25 25 25 25 25 25 25 25 26 26 26 26 26 26 26 25 25 25
12 12 13 14 15 15 15 16 16 17 17 18 19 19 20 20 20 21 21 22 22 23 24 24 25 25 26 26 26 26 26 26 26 26 27 27 27 27 27 26 26 26
12 13 13 14 15 15 16 16 17 17 18 19 19 20 20 21 21 22 22 22 23 24 24 25 26 26 27 27 27 27 27 27 27 27 27 27 27 28 28 27 27 27
12 13 14 14 15 16 16 17 18 18 19 19 20 21 21 22 22 22 23 23 24 24 25 26 27 27 28 28 28 28 28 28 28 27 28 28 28 28 28 28 28 28
12 13 14 15 16 16 17 17 18 19 19 20 21 21 22 22 23 23 23 24 25 25 26 27 27 28 28 29 29 29 29 29 29 28 28 28 29 29 29 29 28 28
13 14 15 15 16 17 17 18 18 19 20 20 21 22 22 23 23 23 24 25 25 26 26 27 28 28 28 29 30 30 30 30 30 30 29 29 29 29 29 29 29 28
13 14 15 15 16 16 17 18 19 20 20 21 21 22 23 23 23 24 24 25 25 26 27 27 28 28 29 29 30 30 31 31 31 31 30 30 30 30 29 29 29 29
14 14 15 15 16 16 17 18 19 20 21 21 22 22 23 23 24 24 25 25 26 27 27 28 29 29 30 30 31 31 31 31 31 31 31 31 30 30 30 29 29 29
14 14 15 15 16 17 18 19 20 20 21 21 22 23 23 24 24 25 25 26 26 27 28 29 29 29 30 31 31 31 31 31 31 31 31 31 31 31 30 30 30 29
14 14 15 15 16 17 18 19 20 21 21 22 22 23 23 24 24 25 25 26 27 27 28 29 29 30 31 31 32 31 31 31 31 31 31 31 31 31 31 31 30 30
14 14 15 15 16 17 18 19 20 21 21 22 22 23 24 24 24 25 25 26 27 27 28 28 29 30 31 31 32 32 32 31 31 31 31 31 31 31 31 31 31 31
14 14 15 16 17 18 19 19 20 21 21 22 23 23 23 24 24 24 25 26 26 27 27 28 28 30 31 31 32 32 32 31 31 31 31 31 31 31 31 32 31 31
14 14 15 16 17 18 19 19 20 21 21 22 22 23 23 23 23 24 24 25 25 26 27 27 28 30 31 31 32 32 32 31 31 31 31 31 31 31 31 32 31 32
14 14 15 16 17 18 19 19 20 20 21 21 21 21 22 22 22 23 23 24 25 25 26 27 28 30 31 31 32 32 32 31 31 31 31 31 32 32 32 32 32 32
14 15 15 16 17 18 18 18 19 19 20 20 20 20 21 21 22 22 23 24 25 25 26 27 28 29 31 31 31 32 32 31 31 31 31 31 32 32 32 32 32 32
13 14 15 16 16 17 17 17 18 18 18 18 19 19 20 20 21 22 23 24 24 25 26 26 27 29 30 31 31 32 32 31 31 31 31 31 32 32 32 32 32 32
13 14 14 15 16 16 16 16 17 17 17 17 17 18 19 20 20 21 22 23 24 25 26 27 28 29 31 31 32 32 32 32 31 31 31 32 32 32 32 32 32 32
12 13 13 14 14 14 15 15 15 15 16 16 16 17 18 19 20 21 22 23 24 25 26 27 28 30 31 32 32 33 32 32 32 32 32 32 32 32 32 32 32 32
11 12 12 13 13 13 13 14 14 14 15 15 16 17 18 19 20 21 22 23 25 26 27 28 28 29 31 32 32 33 33 33 33 33 33 33 32 32 32 32 32 32
10 11 11 11 12 12 12 12 13 13 14 15 16 17 18 19 20 21 23 24 25 26 27 28 28 29 30 32 32 33 33 33 33 33 33 33 33 32 32 32 31 31
Wind_Direction
297 299 300 301 302 303 304 305 306 306 306 306 306 307 308 310 312 312 312 313 314 314 316 317 318 318 317 317 316 314 313 313 313 313 312 311 309 307 304 302 301 299
299 300 302 303 303 304 305 307 307 306 306 305 305 305 306 308 310 310 310 311 312 313 314 315 315 315 315 315 315 315 315 314 313 313 312 311 311 310 307 305 303 300
299 302 303 304 305 306 306 306 307 306 306 306 305 305 305 307 308 309 310 310 311 311 313 313 313 313 313 313 313 313 313 314 314 313 312 311 310 310 309 308 306 302
299 301 303 304 305 306 307 307 307 306 305 306 305 305 305 306 307 308 309 310 310 311 312 312 312 313 313 312 312 311 311 311 312 312 312 311 311 310 310 309 308 305
299 301 303 305 307 308 308 308 308 307 306 306 305 306 306 306 307 308 309 310 310 310 311 311 311 311 311 311 310 310 310 309 309 310 310 310 310 310 310 310 309 307
300 302 305 307 308 309 309 309 309 308 307 307 307 307 307 307 308 309 310 311 311 312 312 312 312 312 312 312 311 311 310 309 308 309 309 308 308 308 308 308 309 308
302 304 305 307 308 310 310 310 310 310 310 310 309 310 309 309 310 311 312 313 313 314 314 314 315 315 315 314 314 313 312 311 309 309 308 307 307 307 306 307 307 307
301 303 305 307 309 311 311 312 312 312 312 312 312 312 312 312 312 313 313 314 314 314 314 315 315 314 314 314 314 314 313 312 311 310 309 308 307 307 306 306 306 305
299 303 306 309 311 312 313 313 313 313 314 314 314 313 313 313 313 313 314 313 314 314 314 314 314 313 313 313 312 312 311 310 310 309 308 307 306 306 305 305 304 303
299 304 308 310 311 312 313 313 313 313 314 314 313 313 313 313 313 313 313 313 313 313 312 313 313 312 312 312 312 311 310 309 308 307 306 305 305 304 303 303 302 301
300 304 308 311 311 311 312 313 313 313 314 314 313 313 313 313 313 312 312 312 312 312 312 312 312 312 311 312 312 311 310 309 307 306 305 304 304 303 302 302 301 300
300 304 309 311 311 312 312 313 314 314 315 315 315 314 314 314 313 313 312 312 312 312 312 312 312 312 311 311 311 310 309 309 308 307 305 304 303 302 302 301 300 300
300 305 308 310 311 311 312 314 315 316 316 316 316 316 316 316 315 314 314 313 312 312 312 313 313 313 312 312 311 310 309 308 307 307 305 304 303 303 302 301 301 300
299 302 306 308 309 311 313 315 316 317 317 317 317 317 317 317 317 316 315 314 313 313 312 313 314 314 314 314 313 311 309 308 307 306 305 304 303 303 303 302 301 300
297 300 303 306 309 311 313 315 316 317 317 318 318 319 318 318 318 317 317 316 316 315 314 314 314 315 315 315 313 312 310 309 307 306 305 303 302 302 302 301 300 300
296 299 302 306 309 312 313 315 317 318 319 320 320 320 320 319 319 318 318 319 318 318 317 316 316 316 316 316 314 313 311 309 306 305 304 303 302 301 300 300 299 298
296 299 303 307 310 312 314 316 318 319 320 321 322 322 322 321 321 321 321 321 320 320 319 319 318 319 318 317 316 315 313 310 307 305 304 303 302 300 299 299 298 297
296 300 305 309 311 313 316 317 318 320 322 323 324 324 323 323 323 323 323 323 322 322 322 321 322 322 322 320 318 317 315 313 309 307 306 304 303 301 300 298 297 296
298 302 306 310 312 315 316 317 319 321 323 324 325 324 324 325 325 325 325 325 326 326 326 325 326 326 326 325 323 321 318 315 312 310 308 306 305 303 301 299 297 295
299 304 308 311 313 315 317 318 321 323 324 325 325 326 327 328 328 329 329 329 330 330 330 329 329 330 329 328 327 325 322 319 316 313 311 309 307 305 303 301 298 296
302 307 310 312 314 316 318 320 322 324 325 326 327 329 330 331 332 332 333 333 333 333 332 332 332 332 332 331 330 328 326 323 320 316 314 312 310 307 305 303 300 298
305 308 311 313 315 317 319 322 323 325 326 327 329 331 333 334 335 335 336 336 336 336 336 336 336 336 336 334 333 332 329 327 324 320 317 315 313 311 308 305 302 300
306 309 312 315 317 320 322 324 325 326 328 329 332 334 336 337 338 338 338 339 339 340 340 339 339 339 338 337 336 335 333 331 328 324 322 319 316 314 311 308 305 303
308 311 315 318 321 323 324 326 328 330 331 333 335 336 338 338 339 340 341 342 342 342 342 341 340 340 340 339 339 338 337 335 332 329 326 323 320 316 314 312 309 306
311 314 318 320 323 324 327 330 332 333 334 335 336 338 339 340 341 342 343 343 343 343 343 343 342 342 342 342 342 341 340 339 336 334 330 327 323 320 317 314 312 309
314 317 320 323 325 328 332 335 336 336 337 337 339 340 341 342 343 344 344 344 344 344 345 344 344 344 344 344 344 344 343 342 340 338 335 331 328 324 321 318 315 311